| time (UTC) | temp F | wind direction | speed knots | gust knots | rain 1hr in | rain 24hr in | rain mn in | humidity % | barometer mb |
| 20260507060610 | 61 | 270 | 7.0 | 9.6 | 0.00 | 0.00 | 0.00 | 52 | 1012.5 |
| 20260507055714 | 61 | 225 | 8.7 | 9.6 | 0.00 | 0.00 | 0.00 | 53 | 1012.5 |
| 20260507054610 | 60 | 180 | 3.5 | 4.3 | 0.00 | 0.00 | 0.00 | 56 | 1012.4 |
| 20260507053714 | 60 | 180 | 2.6 | 3.5 | 0.00 | 0.00 | 0.00 | 55 | 1012.1 |
| 20260507052610 | 60 | 225 | 3.5 | 4.3 | 0.00 | 0.00 | 0.00 | 55 | 1011.9 |
| 20260507051654 | 60 | 180 | 4.3 | 7.0 | 0.00 | 0.00 | 0.00 | 55 | 1011.6 |
| 20260507050610 | 60 | 180 | 7.0 | 8.7 | 0.00 | 0.00 | 0.00 | 56 | 1011.5 |
| 20260507045634 | 59 | 248 | 3.5 | 7.0 | 0.00 | 0.00 | 0.00 | 57 | 1011.7 |
| 20260507044610 | 59 | 225 | 4.3 | 6.1 | 0.00 | 0.00 | 0.00 | 56 | 1011.5 |
| 20260507043634 | 59 | 225 | 5.2 | 8.7 | 0.00 | 0.00 | 0.00 | 56 | 1011.3 |
| 20260507042300 | 58 | 225 | 5.2 | 7.8 | 0.00 | 0.00 | 0.00 | 57 | 1011.2 |
| 20260507041204 | 59 | 180 | 5.2 | 7.0 | 0.00 | 0.00 | 0.00 | 56 | 1010.9 |
| 20260507040140 | 59 | 180 | 4.3 | 6.1 | 0.00 | 0.00 | 0.00 | 56 | 1010.9 |
| 20260507035204 | 59 | 225 | 3.5 | 4.3 | 0.00 | 0.00 | 0.00 | 55 | 1010.8 |
| 20260507034120 | 59 | 180 | 6.1 | 7.0 | 0.00 | 0.00 | 0.00 | 56 | 1010.6 |
| 20260507033304 | 59 | 225 | 7.0 | 9.6 | 0.00 | 0.00 | 0.00 | 56 | 1010.6 |
| 20260507032140 | 59 | 225 | 5.2 | 7.0 | 0.00 | 0.00 | 0.00 | 57 | 1010.6 |
| 20260507031225 | 59 | 225 | 4.3 | 7.0 | 0.00 | 0.00 | 0.00 | 58 | 1010.8 |
| 20260507030241 | 59 | 225 | 4.3 | 6.1 | 0.00 | 0.00 | 0.00 | 60 | 1010.7 |
| 20260507025204 | 59 | 225 | 3.5 | 5.2 | 0.00 | 0.00 | 0.00 | 59 | 1010.8 |
| 20260507024201 | 59 | 225 | 4.3 | 6.1 | 0.00 | 0.00 | 0.00 | 58 | 1010.9 |
| 20260507023205 | 60 | 225 | 1.7 | 2.6 | 0.00 | 0.00 | 0.00 | 57 | 1010.8 |
| 20260507022140 | 60 | 270 | 2.6 | 3.5 | 0.00 | 0.00 | 0.00 | 58 | 1010.9 |
| 20260507020200 | 60 | 180 | 10.4 | 14.8 | 0.00 | 0.00 | 0.00 | 55 | 1010.5 |
| 20260507015145 | 60 | 248 | 9.6 | 13.0 | 0.00 | 0.00 | 0.00 | 55 | 1010.6 |
| 20260507014220 | 60 | 225 | 7.8 | 9.6 | 0.00 | 0.00 | 0.00 | 56 | 1010.4 |
| 20260507013145 | 60 | 270 | 9.6 | 13.0 | 0.00 | 0.00 | 0.00 | 55 | 1010.4 |
| 20260507012120 | 61 | 270 | 9.6 | 14.8 | 0.00 | 0.00 | 0.00 | 54 | 1010.5 |
| 20260507011204 | 61 | 225 | 9.6 | 12.2 | 0.00 | 0.00 | 0.00 | 54 | 1010.4 |
| 20260507010220 | 61 | 225 | 10.4 | 13.0 | 0.00 | 0.00 | 0.00 | 55 | 1010.4 |
| 20260507005144 | 61 | 225 | 5.2 | 8.7 | 0.00 | 0.00 | 0.00 | 54 | 1010.3 |
| 20260507004220 | 62 | 225 | 7.8 | 10.4 | 0.00 | 0.00 | 0.00 | 54 | 1010.4 |
| 20260507003204 | 61 | 225 | 7.0 | 9.6 | 0.00 | 0.00 | 0.00 | 54 | 1010.6 |
| 20260507002140 | 62 | 225 | 7.8 | 9.6 | 0.00 | 0.00 | 0.00 | 54 | 1010.9 |
| 20260507001244 | 62 | 225 | 7.8 | 9.6 | 0.00 | 0.00 | 0.00 | 54 | 1010.9 |
| 20260507000140 | 62 | 225 | 9.6 | 13.9 | 0.00 | 0.00 | 0.00 | 54 | 1010.9 |
| 20260506235144 | 62 | 180 | 13.0 | 15.6 | 0.00 | 0.00 | 0.00 | 54 | 1010.9 |
| 20260506234120 | 62 | 225 | 7.0 | 11.3 | 0.00 | 0.00 | 0.00 | 54 | 1011.0 |
| 20260506233144 | 62 | 180 | 9.6 | 13.0 | 0.00 | 0.00 | 0.00 | 54 | 1010.9 |
| 20260506232301 | 62 | 225 | 9.6 | 11.3 | 0.00 | 0.00 | 0.00 | 54 | 1011.1 |
| 20260506231144 | 62 | 225 | 6.1 | 7.0 | 0.00 | 0.00 | 0.00 | 54 | 1010.7 |
| 20260506230120 | 62 | 225 | 8.7 | 13.0 | 0.00 | 0.00 | 0.00 | 53 | 1010.8 |
| 20260506225145 | 63 | 270 | 6.1 | 9.6 | 0.00 | 0.00 | 0.00 | 53 | 1010.6 |
| 20260506224120 | 63 | 180 | 7.0 | 10.4 | 0.00 | 0.00 | 0.00 | 52 | 1010.8 |
| 20260506223144 | 63 | 315 | 9.6 | 11.3 | 0.00 | 0.00 | 0.00 | 52 | 1011.0 |
| 20260506222140 | 63 | 225 | 7.0 | 13.0 | 0.00 | 0.00 | 0.00 | 52 | 1010.9 |
| 20260506221145 | 64 | 225 | 7.8 | 10.4 | 0.00 | 0.00 | 0.00 | 49 | 1010.6 |
| 20260506220200 | 64 | 270 | 6.1 | 7.8 | 0.00 | 0.00 | 0.00 | 49 | 1010.7 |
| 20260506215204 | 64 | 315 | 4.3 | 5.2 | 0.00 | 0.00 | 0.00 | 49 | 1010.5 |
| 20260506214200 | 64 | 225 | 7.0 | 10.4 | 0.00 | 0.00 | 0.00 | 47 | 1010.5 |
| 20260506213144 | 65 | 225 | 7.0 | 9.6 | 0.00 | 0.00 | 0.00 | 47 | 1010.6 |
| 20260506212120 | 65 | 225 | 6.1 | 8.7 | 0.00 | 0.00 | 0.00 | 46 | 1010.7 |
| 20260506211225 | 65 | 225 | 10.4 | 13.0 | 0.00 | 0.00 | 0.00 | 46 | 1010.6 |
| 20260506210209 | 65 | 225 | 7.0 | 9.6 | 0.00 | 0.00 | 0.00 | 45 | 1010.4 |
| 20260506205144 | 65 | 225 | 8.7 | 10.4 | 0.00 | 0.00 | 0.00 | 45 | 1010.1 |
| 20260506204300 | 65 | 225 | 7.8 | 10.4 | 0.00 | 0.00 | 0.00 | 45 | 1010.0 |
| 20260506203204 | 65 | 225 | 7.8 | 11.3 | 0.00 | 0.00 | 0.00 | 45 | 1010.3 |
| 20260506202120 | 66 | 225 | 10.4 | 14.8 | 0.00 | 0.00 | 0.00 | 44 | 1009.9 |
| 20260506201224 | 66 | 203 | 9.6 | 13.0 | 0.00 | 0.00 | 0.00 | 44 | 1010.1 |
| 20260506200121 | 66 | 225 | 9.6 | 13.9 | 0.00 | 0.00 | 0.00 | 44 | 1010.0 |
| 20260506195145 | 66 | 225 | 6.1 | 8.7 | 0.00 | 0.00 | 0.00 | 43 | 1010.1 |
| 20260506194140 | 66 | 225 | 7.0 | 10.4 | 0.00 | 0.00 | 0.00 | 43 | 1010.5 |
| 20260506193205 | 67 | 180 | 8.7 | 12.2 | 0.00 | 0.00 | 0.00 | 43 | 1010.3 |
| 20260506192120 | 67 | 225 | 7.0 | 9.6 | 0.00 | 0.00 | 0.00 | 43 | 1010.3 |
| 20260506191204 | 67 | 225 | 7.0 | 11.3 | 0.00 | 0.00 | 0.00 | 43 | 1010.3 |
| 20260506190140 | 67 | 225 | 5.2 | 7.0 | 0.00 | 0.00 | 0.00 | 44 | 1010.1 |
| 20260506185144 | 67 | 225 | 10.4 | 13.9 | 0.00 | 0.00 | 0.00 | 42 | 1010.3 |
| 20260506184140 | 67 | 225 | 10.4 | 16.5 | 0.00 | 0.00 | 0.00 | 43 | 1009.9 |
| 20260506183205 | 67 | 225 | 10.4 | 14.8 | 0.00 | 0.00 | 0.00 | 42 | 1010.0 |
| 20260506182120 | 68 | 225 | 13.9 | 18.2 | 0.00 | 0.00 | 0.00 | 42 | 1009.7 |
| 20260506181144 | 68 | 180 | 13.0 | 18.2 | 0.00 | 0.00 | 0.00 | 42 | 1009.7 |
| 20260506180140 | 68 | 135 | 9.6 | 14.8 | 0.00 | 0.00 | 0.00 | 43 | 1009.8 |
| 20260506175204 | 68 | 225 | 11.3 | 13.9 | 0.00 | 0.00 | 0.00 | 43 | 1009.5 |
| 20260506174120 | 69 | 225 | 7.8 | 11.3 | 0.00 | 0.00 | 0.00 | 42 | 1009.6 |
| 20260506173204 | 69 | 180 | 10.4 | 13.0 | 0.00 | 0.00 | 0.00 | 42 | 1009.3 |
| 20260506172120 | 69 | 225 | 9.6 | 13.0 | 0.00 | 0.00 | 0.00 | 43 | 1009.3 |
| 20260506171205 | 69 | 225 | 9.6 | 13.0 | 0.00 | 0.00 | 0.00 | 43 | 1009.2 |
| 20260506170141 | 69 | 225 | 7.8 | 9.6 | 0.00 | 0.00 | 0.00 | 43 | 1009.5 |
| 20260506165224 | 69 | 270 | 7.0 | 9.6 | 0.00 | 0.00 | 0.00 | 42 | 1009.5 |
| 20260506164141 | 69 | 180 | 6.1 | 7.8 | 0.00 | 0.00 | 0.00 | 42 | 1009.5 |
| 20260506163144 | 70 | 225 | 7.0 | 8.7 | 0.00 | 0.00 | 0.00 | 42 | 1009.4 |
| 20260506162201 | 70 | 225 | 6.1 | 8.7 | 0.00 | 0.00 | 0.00 | 42 | 1009.5 |
| 20260506161145 | 70 | 225 | 6.1 | 7.0 | 0.00 | 0.00 | 0.00 | 42 | 1009.8 |
| 20260506160140 | 70 | 203 | 7.0 | 9.6 | 0.00 | 0.00 | 0.00 | 41 | 1009.8 |
| 20260506155145 | 70 | 135 | 8.7 | 9.6 | 0.00 | 0.00 | 0.00 | 41 | 1009.7 |
| 20260506154120 | 71 | 225 | 9.6 | 12.2 | 0.00 | 0.00 | 0.00 | 40 | 1009.7 |
| 20260506153144 | 70 | 225 | 7.8 | 11.3 | 0.00 | 0.00 | 0.00 | 41 | 1010.0 |
| 20260506152120 | 70 | 225 | 7.8 | 10.4 | 0.00 | 0.00 | 0.00 | 42 | 1009.8 |
| 20260506151204 | 71 | 225 | 7.8 | 10.4 | 0.00 | 0.00 | 0.00 | 41 | 1010.0 |
| 20260506150120 | 71 | 315 | 5.2 | 8.7 | 0.00 | 0.00 | 0.00 | 41 | 1009.9 |
| 20260506145204 | 71 | 225 | 7.0 | 9.6 | 0.00 | 0.00 | 0.00 | 41 | 1009.9 |
| 20260506144120 | 71 | 225 | 7.0 | 9.6 | 0.00 | 0.00 | 0.00 | 40 | 1009.9 |
| 20260506143144 | 71 | 225 | 8.7 | 13.0 | 0.00 | 0.00 | 0.00 | 40 | 1010.0 |
| 20260506142121 | 72 | 180 | 9.6 | 13.0 | 0.00 | 0.00 | 0.00 | 40 | 1010.0 |
| 20260506141145 | 72 | 270 | 10.4 | 14.8 | 0.00 | 0.00 | 0.00 | 39 | 1010.0 |
| 20260506140141 | 72 | 225 | 8.7 | 12.2 | 0.00 | 0.00 | 0.00 | 39 | 1009.7 |
| 20260506135144 | 73 | 225 | 11.3 | 15.6 | 0.00 | 0.00 | 0.00 | 33 | 1009.7 |
| 20260506134120 | 75 | 180 | 9.6 | 13.0 | 0.00 | 0.00 | 0.00 | 32 | 1009.9 |
| 20260506133144 | 77 | 180 | 14.8 | 15.6 | 0.00 | 0.00 | 0.00 | 32 | 1010.0 |
| 20260506132121 | 76 | 270 | 10.4 | 13.9 | 0.00 | 0.00 | 0.00 | 32 | 1009.9 |
| 20260506131224 | 75 | 270 | 9.6 | 13.0 | 0.00 | 0.00 | 0.00 | 32 | 1010.0 |
| 20260506130141 | 75 | 180 | 11.3 | 13.9 | 0.00 | 0.00 | 0.00 | 32 | 1010.0 |
| 20260506125144 | 73 | 225 | 9.6 | 12.2 | 0.00 | 0.00 | 0.00 | 33 | 1010.0 |
| 20260506124120 | 73 | 225 | 10.4 | 13.0 | 0.00 | 0.00 | 0.00 | 34 | 1010.1 |
| 20260506123144 | 75 | 225 | 13.0 | 16.5 | 0.00 | 0.00 | 0.00 | 32 | 1010.0 |
| 20260506122120 | 74 | 225 | 7.8 | 12.2 | 0.00 | 0.00 | 0.00 | 32 | 1010.1 |
| 20260506121144 | 75 | 270 | 9.6 | 11.3 | 0.00 | 0.00 | 0.00 | 32 | 1010.4 |
| 20260506120240 | 75 | 203 | 9.6 | 13.0 | 0.00 | 0.00 | 0.00 | 32 | 1010.3 |
| 20260506115145 | 74 | 225 | 7.0 | 12.2 | 0.00 | 0.00 | 0.00 | 32 | 1010.3 |
| 20260506114140 | 74 | 225 | 9.6 | 12.2 | 0.00 | 0.00 | 0.00 | 32 | 1010.4 |
| 20260506113204 | 73 | 225 | 11.3 | 13.0 | 0.00 | 0.00 | 0.00 | 32 | 1010.4 |
| 20260506112201 | 73 | 225 | 7.0 | 9.6 | 0.00 | 0.00 | 0.00 | 34 | 1010.4 |
| 20260506111224 | 73 | 225 | 11.3 | 13.0 | 0.00 | 0.00 | 0.00 | 33 | 1010.5 |
| 20260506110140 | 72 | 225 | 9.6 | 13.9 | 0.00 | 0.00 | 0.00 | 39 | 1010.7 |
| 20260506105205 | 72 | 180 | 10.4 | 16.5 | 0.00 | 0.00 | 0.00 | 39 | 1010.7 |
| 20260506104140 | 72 | 225 | 7.8 | 12.2 | 0.00 | 0.00 | 0.00 | 40 | 1010.8 |
| 20260506103204 | 71 | 225 | 9.6 | 13.0 | 0.00 | 0.00 | 0.00 | 40 | 1010.7 |
| 20260506102140 | 70 | 225 | 8.7 | 12.2 | 0.00 | 0.00 | 0.00 | 40 | 1010.9 |
| 20260506101145 | 70 | 248 | 6.1 | 11.3 | 0.00 | 0.00 | 0.00 | 41 | 1011.0 |
| 20260506100220 | 69 | 315 | 2.6 | 5.2 | 0.00 | 0.00 | 0.00 | 41 | 1011.2 |
| 20260506095144 | 68 | 225 | 10.4 | 13.9 | 0.00 | 0.00 | 0.00 | 41 | 1011.2 |
| 20260506094140 | 68 | 270 | 7.8 | 9.6 | 0.00 | 0.00 | 0.00 | 42 | 1011.3 |
| 20260506093244 | 68 | 270 | 7.0 | 8.7 | 0.00 | 0.00 | 0.00 | 42 | 1011.3 |
| 20260506092200 | 68 | 225 | 11.3 | 13.0 | 0.00 | 0.00 | 0.00 | 42 | 1011.3 |
| 20260506091144 | 68 | 225 | 14.8 | 18.2 | 0.00 | 0.00 | 0.00 | 42 | 1011.1 |
| 20260506090201 | 67 | 293 | 9.6 | 15.6 | 0.00 | 0.00 | 0.00 | 44 | 1011.1 |
| 20260506085144 | 66 | 225 | 14.8 | 18.2 | 0.00 | 0.00 | 0.00 | 44 | 1011.1 |
| 20260506084221 | 66 | 180 | 12.2 | 14.8 | 0.00 | 0.00 | 0.00 | 46 | 1011.2 |
| 20260506082843 | 65 | 225 | 10.4 | 12.2 | 0.00 | 0.00 | 0.00 | 45 | 1011.2 |
| 20260506081633 | 64 | 180 | 9.6 | 13.0 | 0.00 | 0.00 | 0.00 | 47 | 1011.1 |
| 20260506080729 | 64 | 225 | 9.6 | 13.9 | 0.00 | 0.00 | 0.00 | 47 | 1010.8 |
| 20260506072748 | 62 | 225 | 13.0 | 17.4 | 0.00 | 0.00 | 0.00 | 51 | 1010.9 |
| 20260506071713 | 62 | 225 | 13.0 | 19.1 | 0.00 | 0.00 | 0.00 | 51 | 1011.1 |
| 20260506070608 | 62 | 225 | 11.3 | 13.9 | 0.00 | 0.00 | 0.00 | 51 | 1010.9 |
| 20260506061633 | 59 | 225 | 13.0 | 16.5 | 0.00 | 0.00 | 0.00 | 53 | 1011.0 |